User: anonymous   Login
Location: Unspecified
(0.0000°N, 0.0000°E)
Time: 07:37:35
(UTC+00:00)
Language:

GALASSIA - Orbit

View from above orbital plane
View from above orbital plane
View from above satellite
View from above satellite

Ground track
Ground track

The orbit data is extracted from the following two-line orbital elements,

1 41170U 15077E   17289.80142651 +.00002907 +00000-0 +12381-3 0  9993
2 41170 014.9899 356.4455 0013331 281.5607 078.3217 15.12494036101518
Epoch (UTC): 16 October 2017 19:14:03
Eccentricity: 0.0013331
inclination: 14.9899°
perigee height: 519 km
apogee height: 538 km
right ascension of ascending node: 356.4455°
argument of perigee: 281.5607°
revolutions per day: 15.12494036
mean anomaly at epoch: 78.3217°
orbit number at epoch: 10151

The dashed part of the orbit path shows where the satellite is in the earth's shadow,  

DLR